Time,TemperatureF,DewpointF,PressureIn,WindDirection,WindDirectionDegrees,WindSpeedMPH,WindSpeedGustMPH,Humidity,HourlyPrecipIn,Conditions,Clouds,dailyrainin,SoftwareType,DateUTC
2013-04-30 00:02:00,60.0,49.0,-100.00,NNE,20,1.0,3.0,68,-99.99,,,-99.99,,2013-04-30 05:02:00,
2013-04-30 00:12:00,60.0,49.0,-100.00,NNE,20,1.0,3.0,68,-99.99,,,-99.99,,2013-04-30 05:12:00,
2013-04-30 00:22:00,60.0,49.0,-100.00,NNE,20,1.0,3.0,68,-99.99,,,-99.99,,2013-04-30 05:22:00,
2013-04-30 00:31:00,60.0,49.0,-100.00,NNE,20,1.0,3.0,68,-99.99,,,-99.99,,2013-04-30 05:31:00,
2013-04-30 01:02:00,60.0,50.0,-100.00,NNE,30,1.0,6.0,68,-99.99,,,-99.99,,2013-04-30 06:02:00,
2013-04-30 01:12:00,60.0,50.0,-100.00,NNE,30,1.0,6.0,68,-99.99,,,-99.99,,2013-04-30 06:12:00,
2013-04-30 01:21:00,60.0,50.0,-100.00,NNE,30,1.0,6.0,68,-99.99,,,-99.99,,2013-04-30 06:21:00,
2013-04-30 01:31:00,60.0,50.0,-100.00,NNE,30,1.0,6.0,68,-99.99,,,-99.99,,2013-04-30 06:31:00,
2013-04-30 02:01:00,59.0,51.0,-100.00,NNW,345,1.0,6.0,74,-99.99,,,-99.99,,2013-04-30 07:01:00,
2013-04-30 02:11:00,59.0,51.0,-100.00,NNW,345,1.0,6.0,74,-99.99,,,-99.99,,2013-04-30 07:11:00,
2013-04-30 02:21:00,59.0,51.0,-100.00,NNW,345,1.0,6.0,74,-99.99,,,-99.99,,2013-04-30 07:21:00,
2013-04-30 02:31:00,59.0,51.0,-100.00,NNW,345,1.0,6.0,74,-99.99,,,-99.99,,2013-04-30 07:31:00,
2013-04-30 03:02:00,57.0,51.0,-100.00,North,0,1.0,4.0,80,-99.99,,,-99.99,,2013-04-30 08:02:00,
2013-04-30 03:11:00,57.0,51.0,-100.00,North,0,1.0,4.0,80,-99.99,,,-99.99,,2013-04-30 08:11:00,
2013-04-30 03:22:00,57.0,51.0,-100.00,North,0,1.0,4.0,80,-99.99,,,-99.99,,2013-04-30 08:22:00,
2013-04-30 03:32:00,57.0,51.0,-100.00,North,0,1.0,4.0,80,-99.99,,,-99.99,,2013-04-30 08:32:00,
2013-04-30 04:01:00,57.0,52.0,-100.00,NNE,15,1.0,4.0,83,-99.99,,,-99.99,,2013-04-30 09:01:00,
2013-04-30 04:11:00,57.0,52.0,-100.00,NNE,15,1.0,4.0,83,-99.99,,,-99.99,,2013-04-30 09:11:00,
2013-04-30 04:22:00,57.0,52.0,-100.00,NNE,15,1.0,4.0,83,-99.99,,,-99.99,,2013-04-30 09:22:00,
2013-04-30 04:33:00,57.0,52.0,-100.00,NNE,15,1.0,4.0,83,-99.99,,,-99.99,,2013-04-30 09:33:00,
2013-04-30 05:03:00,60.0,54.0,-100.00,NNE,20,2.0,8.0,83,-99.99,,,-99.99,,2013-04-30 10:03:00,
2013-04-30 05:12:00,60.0,54.0,-100.00,NNE,20,2.0,8.0,83,-99.99,,,-99.99,,2013-04-30 10:12:00,
2013-04-30 05:22:00,60.0,54.0,-100.00,NNE,20,2.0,8.0,83,-99.99,,,-99.99,,2013-04-30 10:22:00,
2013-04-30 05:32:00,60.0,54.0,-100.00,NNE,20,2.0,8.0,83,-99.99,,,-99.99,,2013-04-30 10:32:00,
2013-04-30 06:02:00,60.0,53.0,-100.00,NNE,25,1.0,7.0,80,-99.99,,,-99.99,,2013-04-30 11:02:00,
2013-04-30 06:11:00,60.0,53.0,-100.00,NNE,25,1.0,7.0,80,-99.99,,,-99.99,,2013-04-30 11:11:00,
2013-04-30 06:21:00,60.0,53.0,-100.00,NNE,25,1.0,7.0,80,-99.99,,,-99.99,,2013-04-30 11:21:00,
2013-04-30 06:31:00,60.0,53.0,-100.00,NNE,25,1.0,7.0,80,-99.99,,,-99.99,,2013-04-30 11:31:00,
2013-04-30 07:01:00,62.0,54.0,-100.00,NE,50,2.0,9.0,75,-99.99,,,-99.99,,2013-04-30 12:01:00,
2013-04-30 07:11:00,62.0,54.0,-100.00,NE,50,2.0,9.0,75,-99.99,,,-99.99,,2013-04-30 12:11:00,
2013-04-30 07:21:00,62.0,54.0,-100.00,NE,50,2.0,9.0,75,-99.99,,,-99.99,,2013-04-30 12:21:00,
2013-04-30 07:31:00,62.0,54.0,-100.00,NE,50,2.0,9.0,75,-99.99,,,-99.99,,2013-04-30 12:31:00,
2013-04-30 08:01:00,66.0,51.0,-100.00,NE,50,6.0,13.0,58,-99.99,,,-99.99,,2013-04-30 13:01:00,
2013-04-30 08:11:00,66.0,51.0,-100.00,NE,50,6.0,13.0,58,-99.99,,,-99.99,,2013-04-30 13:11:00,
2013-04-30 08:21:00,66.0,51.0,-100.00,NE,50,6.0,13.0,58,-99.99,,,-99.99,,2013-04-30 13:21:00,
2013-04-30 08:31:00,66.0,51.0,-100.00,NE,50,6.0,13.0,58,-99.99,,,-99.99,,2013-04-30 13:31:00,
2013-04-30 08:52:00,70.0,45.0,-100.00,NE,55,14.0,24.0,41,-99.99,,,-99.99,,2013-04-30 13:52:00,
2013-04-30 09:02:00,70.0,45.0,-100.00,NE,55,14.0,24.0,41,-99.99,,,-99.99,,2013-04-30 14:02:00,
2013-04-30 09:11:00,70.0,45.0,-100.00,NE,55,14.0,24.0,41,-99.99,,,-99.99,,2013-04-30 14:11:00,
2013-04-30 09:21:00,70.0,45.0,-100.00,NE,55,14.0,24.0,41,-99.99,,,-99.99,,2013-04-30 14:21:00,
2013-04-30 09:31:00,70.0,45.0,-100.00,NE,55,14.0,24.0,41,-99.99,,,-99.99,,2013-04-30 14:31:00,
2013-04-30 10:01:00,74.0,47.0,-100.00,NE,55,9.0,19.0,39,-99.99,,,-99.99,,2013-04-30 15:01:00,
2013-04-30 10:11:00,74.0,47.0,-100.00,NE,55,9.0,19.0,39,-99.99,,,-99.99,,2013-04-30 15:11:00,
2013-04-30 10:21:00,74.0,47.0,-100.00,NE,55,9.0,19.0,39,-99.99,,,-99.99,,2013-04-30 15:21:00,
2013-04-30 10:32:00,74.0,47.0,-100.00,NE,55,9.0,19.0,39,-99.99,,,-99.99,,2013-04-30 15:32:00,
2013-04-30 11:02:00,75.0,45.0,-100.00,NE,55,12.0,24.0,34,-99.99,,,-99.99,,2013-04-30 16:02:00,
2013-04-30 11:12:00,75.0,45.0,-100.00,NE,55,12.0,24.0,34,-99.99,,,-99.99,,2013-04-30 16:12:00,
2013-04-30 11:23:00,75.0,45.0,-100.00,NE,55,12.0,24.0,34,-99.99,,,-99.99,,2013-04-30 16:23:00,
2013-04-30 11:33:00,75.0,45.0,-100.00,NE,55,12.0,24.0,34,-99.99,,,-99.99,,2013-04-30 16:33:00,
2013-04-30 12:02:00,80.0,44.0,-100.00,ENE,75,11.0,21.0,29,-99.99,,,-99.99,,2013-04-30 17:02:00,
2013-04-30 12:12:00,80.0,44.0,-100.00,ENE,75,11.0,21.0,29,-99.99,,,-99.99,,2013-04-30 17:12:00,
2013-04-30 12:22:00,80.0,44.0,-100.00,ENE,75,11.0,21.0,29,-99.99,,,-99.99,,2013-04-30 17:22:00,
2013-04-30 12:32:00,80.0,44.0,-100.00,ENE,75,11.0,21.0,29,-99.99,,,-99.99,,2013-04-30 17:32:00,
2013-04-30 13:01:00,81.0,43.0,-100.00,NE,35,12.0,24.0,26,-99.99,,,-99.99,,2013-04-30 18:01:00,
2013-04-30 13:11:00,81.0,43.0,-100.00,NE,35,12.0,24.0,26,-99.99,,,-99.99,,2013-04-30 18:11:00,
2013-04-30 13:22:00,81.0,43.0,-100.00,NE,35,12.0,24.0,26,-99.99,,,-99.99,,2013-04-30 18:22:00,
2013-04-30 13:32:00,81.0,43.0,-100.00,NE,35,12.0,24.0,26,-99.99,,,-99.99,,2013-04-30 18:32:00,
2013-04-30 14:01:00,84.0,42.0,-100.00,East,80,12.0,21.0,23,-99.99,,,-99.99,,2013-04-30 19:01:00,
2013-04-30 14:11:00,84.0,42.0,-100.00,East,80,12.0,21.0,23,-99.99,,,-99.99,,2013-04-30 19:11:00,
2013-04-30 14:22:00,84.0,42.0,-100.00,East,80,12.0,21.0,23,-99.99,,,-99.99,,2013-04-30 19:22:00,
2013-04-30 14:32:00,84.0,42.0,-100.00,East,80,12.0,21.0,23,-99.99,,,-99.99,,2013-04-30 19:32:00,
2013-04-30 14:52:00,84.0,41.0,-100.00,ENE,75,10.0,22.0,22,-99.99,,,-99.99,,2013-04-30 19:52:00,
2013-04-30 15:02:00,86.0,41.0,-100.00,ENE,75,9.0,22.0,21,-99.99,,,-99.99,,2013-04-30 20:02:00,
2013-04-30 15:11:00,86.0,41.0,-100.00,ENE,75,9.0,22.0,21,-99.99,,,-99.99,,2013-04-30 20:11:00,
2013-04-30 15:21:00,86.0,41.0,-100.00,ENE,75,9.0,22.0,21,-99.99,,,-99.99,,2013-04-30 20:21:00,
2013-04-30 15:32:00,86.0,41.0,-100.00,ENE,75,9.0,22.0,21,-99.99,,,-99.99,,2013-04-30 20:32:00,
2013-04-30 16:32:00,85.0,39.0,-100.00,East,100,9.0,21.0,20,-99.99,,,-99.99,,2013-04-30 21:32:00,
2013-04-30 16:53:00,85.0,39.0,-100.00,East,100,9.0,21.0,20,-99.99,,,-99.99,,2013-04-30 21:53:00,
2013-04-30 17:02:00,85.0,39.0,-100.00,East,100,9.0,21.0,20,-99.99,,,-99.99,,2013-04-30 22:02:00,
2013-04-30 17:12:00,85.0,39.0,-100.00,East,100,9.0,21.0,20,-99.99,,,-99.99,,2013-04-30 22:12:00,
2013-04-30 17:23:00,85.0,39.0,-100.00,East,100,9.0,21.0,20,-99.99,,,-99.99,,2013-04-30 22:23:00,
2013-04-30 18:02:00,82.0,37.0,-100.00,East,80,10.0,22.0,20,-99.99,,,-99.99,,2013-04-30 23:02:00,
2013-04-30 18:12:00,82.0,37.0,-100.00,East,80,10.0,22.0,20,-99.99,,,-99.99,,2013-04-30 23:12:00,
2013-04-30 18:22:00,82.0,37.0,-100.00,East,80,10.0,22.0,20,-99.99,,,-99.99,,2013-04-30 23:22:00,
2013-04-30 18:32:00,82.0,37.0,-100.00,East,80,10.0,22.0,20,-99.99,,,-99.99,,2013-04-30 23:32:00,
2013-04-30 18:52:00,82.0,39.0,-100.00,East,95,7.0,12.0,22,-99.99,,,-99.99,,2013-04-30 23:52:00,
2013-04-30 19:02:00,82.0,39.0,-100.00,East,95,7.0,12.0,22,-99.99,,,-99.99,,2013-05-01 00:02:00,
2013-04-30 19:11:00,82.0,39.0,-100.00,East,95,7.0,12.0,22,-99.99,,,-99.99,,2013-05-01 00:11:00,
2013-04-30 19:21:00,82.0,39.0,-100.00,East,95,7.0,12.0,22,-99.99,,,-99.99,,2013-05-01 00:21:00,
2013-04-30 19:32:00,82.0,39.0,-100.00,East,95,7.0,12.0,22,-99.99,,,-99.99,,2013-05-01 00:32:00,
2013-04-30 19:52:00,80.0,41.0,-100.00,ENE,75,7.0,17.0,25,-99.99,,,-99.99,,2013-05-01 00:52:00,
2013-04-30 20:01:00,80.0,41.0,-100.00,ENE,75,7.0,17.0,25,-99.99,,,-99.99,,2013-05-01 01:01:00,
2013-04-30 20:11:00,80.0,41.0,-100.00,ENE,75,7.0,17.0,25,-99.99,,,-99.99,,2013-05-01 01:11:00,
2013-04-30 20:21:00,80.0,41.0,-100.00,ENE,75,7.0,17.0,25,-99.99,,,-99.99,,2013-05-01 01:21:00,
2013-04-30 20:31:00,80.0,41.0,-100.00,ENE,75,7.0,17.0,25,-99.99,,,-99.99,,2013-05-01 01:31:00,
2013-04-30 20:52:00,74.0,38.0,-100.00,SSW,200,7.0,13.0,27,-99.99,,,-99.99,,2013-05-01 01:52:00,
2013-04-30 21:02:00,74.0,38.0,-100.00,SSW,200,7.0,13.0,27,-99.99,,,-99.99,,2013-05-01 02:02:00,
2013-04-30 21:11:00,74.0,38.0,-100.00,SSW,200,7.0,13.0,27,-99.99,,,-99.99,,2013-05-01 02:11:00,
2013-04-30 21:21:00,74.0,38.0,-100.00,SSW,200,7.0,13.0,27,-99.99,,,-99.99,,2013-05-01 02:21:00,
2013-04-30 21:30:00,71.0,36.0,-100.00,South,170,4.0,9.0,28,-99.99,,,-99.99,,2013-05-01 02:30:00,
2013-04-30 21:52:00,71.0,36.0,-100.00,South,170,4.0,9.0,28,-99.99,,,-99.99,,2013-05-01 02:52:00,
2013-04-30 22:02:00,71.0,36.0,-100.00,South,170,4.0,9.0,28,-99.99,,,-99.99,,2013-05-01 03:02:00,
2013-04-30 22:11:00,71.0,36.0,-100.00,South,170,4.0,9.0,28,-99.99,,,-99.99,,2013-05-01 03:11:00,
2013-04-30 22:21:00,71.0,36.0,-100.00,South,170,4.0,9.0,28,-99.99,,,-99.99,,2013-05-01 03:21:00,
2013-04-30 22:32:00,67.0,28.0,-100.00,SSW,200,9.0,14.0,23,-99.99,,,-99.99,,2013-05-01 03:32:00,
2013-04-30 22:53:00,67.0,28.0,-100.00,SSW,200,9.0,14.0,23,-99.99,,,-99.99,,2013-05-01 03:53:00,
2013-04-30 23:03:00,67.0,28.0,-100.00,SSW,200,9.0,14.0,23,-99.99,,,-99.99,,2013-05-01 04:03:00,
2013-04-30 23:12:00,67.0,28.0,-100.00,SSW,200,9.0,14.0,23,-99.99,,,-99.99,,2013-05-01 04:12:00,
2013-04-30 23:22:00,67.0,28.0,-100.00,SSW,200,9.0,14.0,23,-99.99,,,-99.99,,2013-05-01 04:22:00,
2013-04-30 23:32:00,60.0,30.0,-100.00,SSW,210,9.0,17.0,33,-99.99,,,-99.99,,2013-05-01 04:32:00,
2013-04-30 23:52:00,60.0,30.0,-100.00,SSW,210,9.0,17.0,33,-99.99,,,-99.99,,2013-05-01 04:52:00,